Temperature
21 20 20 20 19 19 21 22 23 22 22 22 22 21 20 20 20 19 19 19 19 19 19 19 19 19 19 19 19 19 19 19 19 19 19 19 19 19 18 18 19 18 18 18 18 18 18 18 18
21 20 20 20 19 20 21 22 22 22 22 22 22 21 20 19 19 19 19 19 19 19 19 19 19 19 19 19 19 19 19 19 19 18 18 18 18 18 18 18 18 18 18 18 18 18 18 18 18
21 20 20 19 20 21 22 23 22 23 23 22 21 21 20 19 19 19 19 19 19 19 19 19 19 19 19 19 19 19 19 19 19 18 18 18 18 18 18 18 18 18 18 18 18 18 18 18 18
21 21 20 20 22 22 22 23 23 23 23 22 21 20 20 19 20 20 20 19 19 19 19 19 19 19 19 19 19 19 19 19 19 18 18 18 18 18 18 18 18 18 18 18 18 18 18 18 18
21 21 20 21 22 22 23 23 23 23 22 21 21 20 19 19 20 20 19 19 19 19 19 19 19 19 19 19 19 19 19 19 18 18 18 18 18 18 18 18 18 18 18 18 18 18 18 18 18
22 20 20 21 22 23 23 24 23 22 22 21 21 19 19 19 20 20 19 19 19 19 19 19 19 19 19 19 19 19 19 18 18 18 18 18 18 18 18 18 18 18 18 18 18 18 18 18 18
21 20 21 22 22 23 24 24 23 22 22 21 21 19 19 19 19 19 19 19 19 19 19 19 19 19 18 18 19 18 18 18 18 18 18 18 18 18 18 18 18 18 18 18 18 18 18 18 18
22 20 22 22 23 23 24 24 23 23 22 22 21 19 19 19 19 19 19 19 19 19 19 19 19 19 18 18 18 18 18 18 18 18 18 18 18 18 18 18 18 18 18 18 18 18 18 18 18
22 21 21 23 23 23 24 24 23 23 22 21 21 21 20 20 19 19 19 19 19 19 19 19 19 19 18 18 18 18 18 18 18 18 18 18 18 18 18 18 18 18 18 18 18 18 18 18 18
22 21 23 24 24 24 24 24 23 23 22 21 21 21 20 20 19 19 19 19 19 19 19 19 19 18 18 18 18 18 18 18 18 18 18 18 18 18 18 18 18 18 18 18 18 18 18 18 18
22 22 23 24 25 25 24 24 23 22 21 21 21 20 20 20 19 19 19 19 19 19 19 19 19 18 18 18 18 18 18 18 18 18 18 18 18 18 18 18 18 18 18 18 18 18 18 18 18
23 23 24 25 25 25 24 24 23 23 23 23 23 22 21 20 20 20 20 20 19 19 19 19 19 18 18 18 18 18 18 18 18 18 18 18 18 18 18 18 18 18 18 18 18 18 18 18 18
24 24 25 25 25 25 25 24 23 23 23 23 22 21 21 20 20 20 20 20 20 19 19 19 19 18 18 18 18 18 18 18 18 18 18 18 18 18 18 18 18 18 18 18 18 18 18 18 18
25 25 25 25 25 25 24 23 23 22 23 22 21 21 21 21 20 20 20 20 20 20 19 19 19 19 18 18 18 18 18 18 18 18 18 18 18 18 18 18 18 18 18 18 18 18 18 18 18
25 24 25 25 25 25 25 23 22 22 22 21 21 21 21 21 20 20 20 20 20 20 19 19 19 19 18 18 18 18 18 18 18 18 18 18 18 18 18 18 18 18 18 18 18 18 18 18 18
25 24 24 25 25 25 25 23 22 22 22 21 21 21 21 20 20 21 20 20 20 20 19 19 19 19 19 18 18 18 18 18 18 18 18 18 18 18 18 18 18 18 18 18 18 18 18 18 18
23 23 24 25 25 24 24 23 22 21 21 21 20 20 20 20 20 20 20 20 20 20 20 19 19 19 19 18 18 18 18 18 18 18 18 18 18 18 18 18 18 18 18 18 18 18 18 18 18
24 24 24 24 24 24 23 22 21 21 21 20 20 20 20 20 20 21 20 20 20 20 19 19 19 19 19 18 18 18 18 18 18 18 18 18 18 18 18 18 18 18 18 18 18 18 18 18 18
25 24 24 24 25 23 22 22 21 21 21 20 20 20 20 20 21 20 20 20 20 20 19 19 19 19 19 18 18 18 18 18 18 18 18 18 18 18 18 18 18 18 18 18 18 18 18 18 18
25 24 24 24 25 24 22 22 21 21 20 20 20 20 20 20 20 20 20 20 20 20 19 19 19 19 19 19 18 18 18 18 18 18 18 18 18 18 18 18 18 18 18 18 18 18 17 17 17
25 24 24 24 24 23 23 22 21 21 21 20 20 20 20 20 20 20 20 20 20 20 20 20 19 19 19 19 18 18 18 18 18 18 18 18 18 18 18 18 18 18 18 18 17 17 17 17 17
24 25 25 24 23 22 23 21 21 20 20 20 20 20 20 20 20 20 20 20 20 20 20 20 20 19 19 19 18 18 18 18 18 18 18 18 18 18 18 18 18 18 18 18 18 17 17 17 17
25 25 24 23 22 21 21 21 20 20 20 20 20 20 20 20 20 20 20 20 20 20 20 20 20 19 19 19 18 18 18 18 18 18 18 18 18 18 18 18 18 18 18 18 18 17 17 17 17
24 23 22 20 20 21 21 21 21 19 20 20 20 20 20 20 20 20 20 20 20 20 20 20 19 19 19 19 18 18 18 18 18 18 18 18 18 18 18 18 18 18 18 18 18 17 17 17 17
23 22 21 22 20 21 20 20 20 21 21 20 20 21 21 21 20 20 20 20 20 20 20 20 19 19 19 19 18 18 18 18 18 18 18 18 18 18 18 18 18 18 18 18 18 18 17 17 17
23 22 21 22 21 20 20 20 21 21 21 21 21 21 21 21 21 20 21 20 20 20 20 19 19 19 19 19 18 18 18 18 18 18 18 18 18 18 18 18 18 18 18 18 18 18 17 17 17
23 21 20 19 20 20 20 20 20 21 21 21 21 21 21 21 21 21 21 21 20 20 20 20 19 19 19 19 18 18 18 18 18 18 18 18 18 18 18 18 18 18 18 18 18 17 17 17 17
22 19 18 19 20 20 21 20 20 21 21 20 19 20 20 21 21 21 21 21 21 20 20 20 19 19 19 19 18 18 18 18 18 18 18 18 18 18 18 18 18 17 18 17 17 17 17 17 17
22 21 18 16 18 19 20 21 21 20 20 19 19 20 20 21 21 20 20 21 21 20 20 20 19 19 19 19 18 18 18 18 18 18 18 18 18 18 18 17 17 17 17 17 17 17 17 17 17
23 21 19 20 19 17 18 20 21 19 19 19 19 20 20 21 21 21 20 20 20 20 20 20 19 19 19 19 18 18 18 18 18 18 17 17 17 17 17 17 17 17 17 17 17 17 17 17 17
Wind_Speed
7 6 3 1 3 4 2 3 1 2 3 3 5 6 6 4 2 2 1 4 6 5 6 9 10 11 12 12 13 13 14 14 15 14 14 14 14 14 14 13 12 12 12 11 11 12 12 12 12
6 5 1 2 4 3 3 2 2 3 5 5 6 6 6 5 3 4 2 4 6 6 6 8 10 11 11 12 12 13 13 13 14 13 13 13 13 13 13 13 12 11 11 10 11 12 12 12 12
6 3 1 3 3 2 1 0 4 5 5 3 4 5 4 3 3 3 3 7 7 5 7 9 10 11 11 11 12 12 12 12 12 12 12 12 12 13 13 12 11 11 10 10 11 11 11 11 10
3 1 2 4 2 1 2 2 5 6 4 5 5 5 4 3 3 4 7 8 7 5 7 9 10 10 11 11 12 11 11 11 11 11 11 11 11 11 11 10 10 10 9 9 10 10 10 9 8
1 2 4 3 2 1 1 3 3 4 3 5 5 5 4 4 7 9 9 7 7 5 6 8 10 10 11 11 11 11 10 10 10 10 10 10 10 10 9 9 8 8 8 8 9 9 8 8 7
3 3 4 2 3 2 1 3 4 5 5 5 5 5 3 4 7 8 7 6 5 5 5 6 9 9 9 10 10 10 10 9 9 9 9 9 9 8 8 7 7 7 6 6 7 7 6 6 5
3 3 2 0 1 1 1 3 4 4 5 4 4 5 3 3 5 7 7 6 5 5 5 4 5 7 7 8 9 9 9 8 7 7 8 8 8 7 7 6 6 6 5 5 5 4 4 4 4
2 3 1 0 1 1 2 3 3 5 4 5 4 6 5 5 7 8 7 6 5 4 4 3 4 4 5 6 7 7 8 7 6 7 7 6 6 6 6 5 4 4 4 4 3 3 2 1 2
2 3 0 2 3 2 3 4 3 4 7 4 3 4 6 12 11 9 7 4 3 3 2 2 3 3 4 4 5 6 6 5 5 5 6 5 4 4 3 3 3 3 3 3 2 2 1 1 1
3 2 4 3 4 3 3 4 5 5 5 3 5 7 12 13 12 10 8 7 5 3 2 2 2 2 3 3 4 4 4 4 3 3 4 3 3 2 2 2 2 2 2 2 2 1 1 0 1
3 4 2 1 2 4 4 4 4 8 3 5 9 13 14 12 10 9 8 7 6 4 3 3 2 2 2 2 3 3 3 3 3 3 3 3 3 2 2 2 1 1 1 1 1 1 1 0 1
2 3 2 1 2 3 4 4 4 4 4 6 13 16 15 13 11 10 9 7 5 5 4 3 3 3 2 2 2 2 1 1 1 1 2 2 1 1 1 1 1 1 1 1 1 1 1 1 1
1 2 1 1 3 4 5 4 4 2 5 11 13 13 13 12 10 7 7 6 6 6 5 4 3 3 2 2 1 2 1 1 1 1 1 2 1 1 0 0 0 1 1 1 1 1 1 1 1
1 1 2 2 3 3 5 3 4 3 9 12 13 11 11 11 9 7 7 7 7 6 5 4 4 4 3 3 2 2 2 2 1 1 1 2 2 1 1 1 0 1 1 1 1 1 1 1 1
1 3 4 2 2 2 5 4 1 5 10 11 11 10 9 8 8 8 8 8 7 6 5 5 5 4 4 3 3 3 3 3 2 2 2 2 2 2 1 1 0 1 1 0 1 1 1 1 1
3 4 3 3 1 2 5 1 2 6 10 10 8 8 8 7 7 7 7 6 6 6 6 6 6 5 4 3 2 2 3 2 2 2 2 2 2 2 1 1 1 1 0 0 1 1 1 0 0
4 1 2 3 0 2 3 2 3 6 8 8 7 7 7 6 5 5 6 7 7 7 6 6 5 5 5 3 3 2 2 2 2 2 2 2 3 3 2 1 1 1 0 0 0 1 1 1 1
2 2 2 3 2 3 2 1 3 6 7 6 6 5 6 7 7 6 6 6 6 6 6 5 5 4 4 3 2 1 1 1 1 1 2 3 3 3 3 2 1 1 1 0 0 1 1 1 1
4 3 2 3 1 3 2 1 3 5 5 5 5 6 6 6 5 5 6 6 6 5 5 5 5 4 4 2 2 1 1 1 0 1 3 3 3 4 3 2 1 1 1 1 1 1 1 0 1
3 2 1 3 2 3 2 1 1 4 6 7 8 8 7 6 4 5 6 6 6 6 6 5 5 5 4 3 3 2 2 1 1 1 2 3 3 3 3 3 2 2 1 0 1 2 1 0 1
2 4 4 2 2 4 4 4 1 1 2 2 3 4 5 8 8 8 7 7 7 6 7 7 6 5 5 4 3 2 1 1 0 1 1 2 3 4 4 3 3 2 2 2 2 2 2 1 0
3 4 4 3 3 1 2 2 5 2 2 4 4 4 5 6 6 7 7 7 8 8 6 6 6 5 5 4 4 4 3 3 3 2 2 3 3 3 4 4 4 3 3 3 3 2 2 2 2
4 1 4 3 4 3 3 2 6 1 3 7 7 7 7 6 7 7 8 9 8 7 7 6 5 5 4 5 5 4 3 3 2 1 2 2 2 2 3 4 4 3 3 3 3 2 3 2 3
4 6 7 6 5 1 2 2 5 4 5 5 6 7 6 6 6 6 6 6 5 5 6 6 5 5 5 5 5 5 5 3 2 2 2 2 2 2 3 3 3 4 3 4 4 4 4 4 4
6 6 4 5 4 4 2 2 7 6 5 5 5 6 6 5 6 6 6 6 6 6 6 6 6 6 6 6 6 6 5 4 4 4 4 3 2 2 3 3 3 3 4 4 4 4 4 5 4
4 8 7 5 4 4 3 4 6 4 2 2 3 3 4 5 5 7 8 8 7 6 6 6 6 6 6 6 6 5 5 4 4 4 4 4 4 4 3 4 4 4 4 4 4 4 5 4 4
5 3 6 7 3 0 4 5 6 1 2 1 0 1 3 5 6 6 7 7 7 7 6 7 6 5 6 6 5 5 5 5 5 4 4 4 3 3 3 3 4 4 3 3 3 3 4 4 4
6 8 6 6 4 2 5 5 5 5 3 2 1 2 3 3 4 4 5 6 7 7 6 5 5 5 4 4 4 4 4 5 4 3 4 4 4 3 3 3 4 4 4 3 3 4 4 4 4
4 5 6 5 6 6 3 7 5 7 6 5 4 3 3 4 5 4 4 5 5 4 4 5 5 4 4 3 3 4 4 4 3 4 4 4 4 3 4 4 4 4 4 3 3 4 3 4 4
4 6 7 5 3 5 4 7 4 3 4 4 4 3 3 4 4 4 4 4 4 4 4 5 5 5 5 4 4 4 3 3 3 4 4 4 4 4 4 4 4 5 4 3 4 4 4 4 5
Wind_Direction
162 147 143 121 57 48 6 335 79 69 57 51 74 83 92 82 100 129 77 116 117 117 130 132 125 122 120 121 120 119 119 120 121 123 124 125 126 127 129 127 128 130 132 134 137 135 134 134 132
149 154 154 65 74 59 339 339 78 87 130 123 81 72 69 63 66 101 104 121 118 121 126 132 129 126 124 123 123 122 120 121 123 124 125 127 128 129 129 129 132 134 135 139 138 137 137 137 135
162 187 90 66 75 143 211 111 119 110 118 91 78 64 75 83 101 120 139 126 113 115 123 133 131 129 127 126 125 124 123 124 125 124 125 126 126 126 126 128 132 135 136 139 137 136 137 138 138
158 79 51 61 45 243 189 156 135 124 79 59 89 74 66 59 119 125 125 121 115 111 124 135 132 129 128 128 128 126 127 127 127 126 127 128 127 126 127 128 129 132 133 136 140 138 138 140 142
93 72 51 34 349 331 156 140 125 104 84 73 87 88 55 30 94 112 119 119 122 118 122 134 132 131 130 130 130 129 128 129 131 131 130 129 128 128 129 130 131 131 131 133 136 138 141 148 152
64 67 64 21 340 358 96 108 101 89 92 94 89 93 68 87 107 119 115 111 111 113 115 134 137 133 133 134 134 133 133 131 134 136 135 133 131 134 136 136 137 137 137 136 137 141 144 151 158
98 81 99 148 352 359 142 110 116 114 109 110 111 100 101 120 121 117 108 103 98 96 97 106 128 132 133 132 134 137 136 134 133 135 137 137 138 140 141 143 146 145 144 141 141 144 145 158 174
129 96 56 350 148 247 152 117 113 116 112 114 109 129 159 164 129 110 99 93 96 94 96 94 103 108 119 126 133 136 133 131 131 135 132 135 137 143 149 153 162 161 155 154 153 152 158 165 202
122 76 222 215 177 200 154 124 101 89 103 100 102 138 148 137 129 120 112 102 111 117 94 102 99 100 106 118 127 124 124 124 125 125 128 122 116 124 135 146 164 172 176 177 173 178 174 165 240
102 134 225 208 176 166 143 126 138 113 101 95 90 101 124 136 142 145 150 157 163 167 160 136 124 117 112 117 100 93 98 93 91 96 98 94 95 100 113 126 143 153 172 191 192 202 156 38 337
160 197 230 225 171 138 127 116 123 129 158 181 156 146 144 148 153 160 168 172 176 175 177 167 153 140 125 109 105 89 87 83 77 85 99 99 84 63 55 50 27 24 80 58 32 17 23 359 273
174 247 207 210 137 131 136 130 116 145 204 162 154 150 153 160 169 175 177 178 169 170 184 169 157 146 145 134 121 115 113 102 95 91 105 108 94 58 44 50 26 25 28 28 20 17 13 11 246
194 298 82 147 109 115 117 121 124 125 123 127 137 147 159 168 175 178 175 170 169 175 178 165 154 151 144 132 146 141 148 146 138 116 121 137 146 137 111 74 7 4 8 358 343 351 12 5 343
213 348 350 54 111 124 117 102 104 143 133 134 145 158 167 173 172 166 168 171 175 178 174 162 155 156 149 147 152 152 163 167 142 151 174 170 172 166 152 131 223 293 298 298 314 351 1 5 358
71 45 17 13 70 115 108 56 146 157 141 144 156 165 171 176 171 176 180 179 176 172 169 165 165 154 154 156 157 156 169 171 173 200 207 190 178 178 165 140 206 269 281 303 38 34 43 8 353
44 48 12 306 79 112 116 199 190 153 149 155 167 175 180 186 185 183 177 173 169 162 165 174 174 158 159 156 148 149 164 172 183 189 189 188 192 190 156 143 253 274 300 101 115 128 84 38 308
34 47 290 302 125 122 130 196 169 157 156 166 177 184 186 186 196 189 178 173 171 169 168 170 168 163 165 159 144 145 154 165 179 180 190 199 201 194 174 181 233 246 133 125 187 126 154 176 214
229 220 260 270 275 116 121 171 142 158 157 166 172 177 185 192 202 189 177 171 166 165 164 166 163 159 152 139 121 109 99 124 176 198 211 204 202 196 186 193 215 190 147 144 142 143 138 166 199
174 176 239 260 244 128 142 164 165 168 170 177 183 186 193 201 190 167 168 163 157 161 162 164 164 165 152 145 156 162 204 219 231 231 231 217 203 197 191 200 181 169 168 188 161 138 125 73 125
161 157 266 309 27 127 108 44 136 175 196 197 197 197 197 190 175 173 172 169 170 173 174 169 173 175 175 176 172 167 167 193 218 261 259 239 220 208 208 197 201 180 157 146 153 138 141 184 119
209 187 208 216 40 65 87 358 341 210 199 196 203 200 196 195 193 189 184 182 178 183 184 185 185 184 183 172 144 135 102 52 221 273 273 255 235 224 217 208 199 191 183 198 210 182 177 203 263
254 230 182 158 112 323 98 276 292 249 240 230 223 209 210 208 202 197 191 187 189 193 186 182 183 182 183 171 165 171 185 206 220 221 242 260 241 232 223 212 203 204 198 202 219 202 197 186 221
216 99 113 107 119 64 30 133 291 304 255 246 230 222 219 210 203 196 195 197 195 191 187 188 181 184 181 181 183 182 201 215 217 215 241 261 264 248 237 222 213 215 213 211 212 208 205 203 211
127 66 55 49 70 45 285 168 281 244 231 247 232 224 219 211 206 199 191 185 193 190 188 185 183 196 188 189 193 192 199 202 205 223 233 250 258 260 251 231 221 224 222 221 220 215 216 220 218
83 88 35 5 9 261 277 185 251 252 228 221 226 222 212 201 195 188 182 184 190 192 194 189 185 205 204 203 207 206 205 202 213 224 229 235 243 248 253 245 235 235 234 229 222 214 227 225 225
149 135 154 191 222 276 325 235 254 271 254 225 222 215 196 192 195 194 194 189 193 196 195 190 193 206 208 211 218 215 207 210 225 229 229 232 236 241 244 241 242 241 238 239 225 224 232 226 226
130 141 153 131 133 354 288 286 302 290 325 10 20 169 196 204 203 201 200 197 194 194 199 198 193 202 207 211 215 215 210 211 224 232 231 242 248 248 242 238 242 246 239 234 224 229 234 228 229
124 140 101 111 137 241 289 276 252 266 268 302 307 251 231 210 209 206 202 200 197 195 195 192 192 196 200 201 211 222 220 218 223 224 230 242 251 254 254 247 241 243 243 233 222 235 239 236 242
87 92 103 113 142 156 241 270 233 231 221 217 239 245 211 195 202 203 201 201 198 186 185 189 195 192 193 199 211 227 232 223 222 229 238 247 255 253 252 249 242 244 245 240 229 238 233 235 245
142 150 144 150 200 171 184 261 297 234 219 202 223 237 214 199 201 194 189 184 187 194 205 205 204 203 207 206 211 224 233 228 229 243 251 249 254 259 256 249 241 243 244 236 232 239 242 236 241
Height
1492 1493 1494 1496 1498 1506 1507 1500 1494 1494 1495 1496 1495 1496 1498 1502 1505 1510 1507 1506 1507 1507 1508 1508 1509 1510 1511 1512 1513 1514 1515 1516 1518 1519 1521 1522 1523 1525 1526 1528 1529 1531 1532 1534 1535 1536 1538 1539 1541
1493 1494 1496 1497 1504 1516 1510 1498 1496 1495 1496 1496 1497 1498 1500 1502 1504 1505 1506 1507 1508 1509 1510 1510 1511 1512 1513 1514 1515 1517 1518 1519 1520 1522 1523 1524 1525 1527 1528 1529 1531 1532 1534 1535 1536 1538 1539 1541 1542
1494 1495 1497 1499 1506 1513 1507 1497 1496 1496 1497 1497 1499 1501 1502 1505 1505 1506 1507 1509 1510 1511 1512 1512 1514 1515 1516 1517 1518 1519 1520 1521 1523 1524 1525 1526 1527 1529 1530 1531 1532 1533 1535 1536 1537 1539 1541 1542 1544
1495 1497 1498 1503 1507 1503 1499 1496 1496 1497 1498 1499 1500 1503 1505 1507 1508 1508 1509 1510 1511 1513 1514 1515 1516 1517 1518 1519 1520 1521 1523 1524 1525 1526 1527 1528 1529 1531 1532 1533 1534 1535 1536 1537 1538 1540 1542 1543 1545
1496 1497 1502 1508 1505 1500 1496 1496 1497 1497 1499 1501 1502 1505 1508 1509 1510 1510 1511 1512 1513 1515 1516 1517 1518 1519 1520 1521 1522 1524 1525 1526 1527 1528 1529 1530 1531 1532 1533 1535 1536 1537 1538 1539 1540 1542 1543 1545 1546
1497 1499 1510 1514 1506 1499 1497 1497 1498 1499 1501 1503 1504 1506 1510 1511 1512 1512 1513 1515 1516 1516 1518 1519 1520 1521 1523 1524 1525 1526 1527 1528 1529 1530 1531 1532 1533 1534 1535 1537 1538 1539 1540 1541 1542 1544 1545 1546 1547
1499 1503 1510 1510 1508 1502 1498 1498 1499 1501 1502 1504 1505 1508 1511 1512 1514 1514 1515 1517 1518 1519 1520 1521 1522 1523 1524 1525 1527 1528 1529 1530 1531 1532 1533 1534 1535 1536 1537 1538 1539 1540 1541 1542 1543 1545 1546 1547 1548
1499 1503 1508 1509 1507 1504 1499 1499 1501 1501 1504 1506 1507 1508 1511 1513 1515 1516 1517 1518 1520 1521 1522 1523 1524 1525 1526 1527 1529 1530 1531 1532 1533 1533 1534 1536 1536 1537 1539 1540 1541 1542 1543 1544 1545 1546 1547 1548 1549
1499 1507 1512 1506 1505 1501 1499 1500 1502 1503 1504 1506 1507 1509 1511 1513 1515 1516 1518 1520 1521 1522 1523 1525 1526 1527 1528 1529 1530 1532 1533 1534 1535 1535 1536 1537 1538 1539 1540 1541 1542 1543 1544 1545 1546 1547 1548 1548 1549
1500 1509 1505 1498 1497 1498 1498 1499 1502 1504 1506 1507 1509 1510 1512 1514 1515 1517 1518 1520 1521 1523 1525 1526 1527 1529 1530 1531 1532 1533 1534 1535 1536 1537 1538 1538 1539 1540 1541 1542 1543 1544 1544 1545 1546 1547 1548 1549 1549
1500 1502 1497 1495 1496 1496 1498 1500 1502 1504 1507 1506 1507 1509 1512 1514 1516 1518 1519 1521 1522 1524 1526 1527 1529 1530 1531 1532 1533 1534 1535 1537 1537 1538 1539 1540 1541 1541 1542 1543 1544 1544 1545 1546 1547 1548 1548 1549 1550
1499 1497 1496 1495 1495 1497 1498 1500 1502 1504 1504 1505 1507 1509 1511 1514 1516 1518 1520 1522 1523 1525 1526 1528 1530 1531 1532 1534 1535 1536 1537 1538 1538 1539 1540 1541 1542 1542 1543 1544 1545 1545 1546 1547 1547 1548 1549 1550 1550
1498 1496 1495 1495 1495 1497 1499 1500 1502 1504 1505 1506 1509 1511 1513 1515 1517 1519 1521 1523 1524 1526 1527 1529 1530 1532 1533 1534 1535 1536 1538 1538 1539 1540 1541 1542 1543 1543 1544 1544 1545 1546 1546 1547 1548 1548 1549 1550 1551
1497 1496 1496 1496 1496 1497 1499 1502 1503 1505 1505 1508 1510 1512 1514 1516 1518 1520 1521 1523 1525 1526 1528 1530 1531 1533 1534 1535 1536 1537 1538 1539 1540 1541 1542 1542 1543 1544 1544 1545 1546 1546 1547 1547 1548 1549 1549 1550 1550
1497 1498 1498 1497 1497 1499 1500 1505 1505 1505 1507 1509 1511 1513 1515 1517 1519 1520 1522 1523 1525 1527 1529 1530 1532 1533 1534 1536 1537 1538 1539 1540 1541 1541 1542 1543 1544 1544 1545 1545 1546 1547 1547 1548 1548 1549 1549 1550 1550
1499 1505 1509 1500 1498 1499 1504 1513 1506 1507 1508 1510 1512 1514 1516 1517 1519 1520 1522 1524 1526 1527 1529 1531 1532 1533 1535 1536 1537 1538 1539 1540 1541 1542 1543 1543 1544 1545 1545 1546 1546 1547 1547 1548 1548 1548 1549 1549 1549
1509 1516 1513 1505 1499 1499 1504 1510 1507 1507 1509 1511 1513 1514 1516 1518 1519 1521 1522 1524 1526 1528 1529 1531 1532 1534 1535 1536 1537 1538 1539 1540 1541 1542 1543 1543 1544 1545 1545 1545 1546 1546 1547 1548 1548 1548 1548 1549 1549
1515 1515 1513 1510 1501 1502 1507 1510 1508 1508 1509 1511 1513 1514 1515 1516 1518 1520 1522 1524 1525 1527 1529 1531 1532 1533 1535 1536 1537 1538 1539 1540 1541 1542 1542 1543 1544 1544 1545 1545 1546 1546 1546 1547 1547 1547 1548 1548 1548
1504 1510 1513 1507 1500 1504 1509 1510 1510 1510 1511 1512 1513 1514 1514 1515 1517 1520 1521 1523 1525 1526 1528 1529 1531 1532 1534 1535 1536 1537 1538 1539 1540 1541 1542 1543 1543 1544 1544 1544 1545 1545 1546 1546 1546 1546 1547 1547 1547
1504 1510 1511 1506 1500 1505 1511 1512 1510 1510 1510 1510 1511 1512 1513 1515 1516 1518 1520 1521 1523 1525 1526 1528 1530 1531 1533 1534 1536 1537 1538 1538 1539 1540 1541 1542 1542 1543 1543 1544 1544 1545 1545 1545 1545 1545 1545 1545 1546
1504 1508 1508 1508 1505 1505 1511 1517 1513 1510 1510 1511 1511 1511 1512 1513 1514 1515 1517 1519 1521 1523 1525 1527 1529 1530 1532 1534 1535 1536 1537 1537 1538 1539 1539 1540 1541 1542 1542 1543 1543 1543 1543 1544 1544 1544 1544 1544 1545
1507 1498 1500 1504 1513 1522 1517 1533 1517 1512 1511 1510 1509 1509 1509 1510 1512 1513 1515 1517 1519 1522 1524 1526 1527 1529 1531 1533 1533 1534 1535 1535 1536 1537 1538 1539 1540 1540 1541 1541 1542 1542 1542 1542 1542 1542 1543 1543 1543
1499 1495 1500 1505 1514 1524 1522 1531 1525 1513 1513 1509 1507 1507 1507 1508 1510 1511 1513 1516 1518 1521 1522 1524 1525 1527 1529 1531 1532 1532 1533 1534 1535 1536 1536 1537 1538 1538 1539 1539 1539 1540 1540 1540 1540 1540 1541 1541 1541
1494 1501 1507 1515 1523 1536 1528 1532 1529 1517 1510 1505 1503 1504 1505 1506 1508 1509 1512 1514 1516 1519 1520 1522 1523 1525 1527 1528 1530 1530 1531 1532 1533 1534 1534 1535 1536 1536 1536 1537 1537 1537 1538 1538 1538 1538 1538 1539 1539
1498 1515 1535 1537 1545 1542 1528 1530 1526 1506 1501 1501 1500 1501 1502 1504 1506 1507 1509 1511 1513 1515 1517 1519 1520 1523 1524 1526 1527 1528 1529 1530 1531 1531 1532 1532 1533 1533 1534 1535 1535 1535 1535 1536 1536 1536 1536 1536 1536
1502 1511 1535 1546 1549 1542 1530 1530 1515 1500 1499 1498 1499 1499 1500 1502 1503 1505 1506 1508 1510 1513 1515 1516 1518 1520 1521 1523 1524 1525 1527 1528 1528 1529 1529 1530 1530 1531 1531 1532 1532 1532 1533 1533 1533 1533 1533 1533 1533
1502 1511 1513 1532 1538 1543 1536 1524 1510 1499 1498 1498 1498 1498 1499 1500 1501 1502 1504 1506 1508 1510 1512 1514 1515 1517 1519 1520 1522 1523 1524 1525 1525 1526 1526 1527 1527 1528 1528 1528 1529 1529 1530 1530 1530 1530 1530 1530 1530
1494 1505 1520 1532 1546 1548 1537 1529 1521 1505 1501 1498 1498 1497 1497 1499 1500 1501 1502 1504 1506 1508 1510 1512 1513 1514 1516 1517 1519 1520 1521 1522 1522 1523 1523 1523 1524 1524 1525 1525 1525 1526 1526 1526 1526 1526 1527 1527 1526
1500 1507 1518 1531 1533 1545 1546 1531 1503 1501 1498 1498 1497 1496 1496 1497 1498 1499 1500 1503 1504 1506 1508 1509 1511 1512 1513 1514 1516 1517 1518 1518 1519 1519 1519 1520 1521 1521 1521 1521 1522 1522 1522 1523 1523 1523 1523 1523 1523
1493 1501 1512 1524 1532 1536 1539 1527 1495 1495 1494 1495 1495 1495 1495 1496 1497 1498 1499 1501 1503 1504 1505 1507 1508 1509 1510 1511 1512 1513 1514 1515 1515 1516 1516 1516 1517 1517 1517 1517 1517 1517 1518 1518 1519 1519 1519 1519 1519